Back to catalog

STARLINK-36830

AliveCommunicationsSSO
NORAD 68110·PAYLOAD·🇺🇸 United States

Launched Mar 8, 2026 from Vandenberg Space Force Base

Loading…

Next Passes (next 24 hours)

TLE

FreshSource: CelesTrak SupGP

Epoch: Sep 14, 2026, 23:25 UTC

1 68110C 26044K   26257.97618056 -.00056878  00000+0 -17658-2 0  2577
2 68110  97.2850 216.9774 0001720  87.8185 118.7196 15.33464551    13

Track STARLINK-36830 in real time with AllMySat

Download on the App Store